N666X KAPA-BIRK

Flight info

Callsign N666X
Flight time N/A
Altitude 35000
Route YELLO5 HANKI J148 ONL J114 GEP J21 DLH/N0452F370 Q924 MECNU DCT 52N084W 55N077W 59N068W/M077F390 61N058W 63N047W 64N034W DCT REKCI
Aircraft CL60/M-SBDE1E2E3FGHIJ1J4J5J7M3RWXYZ/LB1V1D1

Departure

Time 2026-05-06 18:28
Airport Centennial Airport (KAPA)

Arrival

Time N/A
Airport Reykjavík Domestic Airport (BIRK)
Time Latitude Longitude Altitude Speed Heading
2026-05-06 17:52 39.57029 -104.84812 5830 ft 0 kts 355°
2026-05-06 18:23 39.57047 -104.84818 5830 ft 4 kts 336°
2026-05-06 18:23 39.57083 -104.84837 5830 ft 6 kts 339°
2026-05-06 18:23 39.57125 -104.84873 5830 ft 7 kts 311°
2026-05-06 18:24 39.57129 -104.84930 5830 ft 7 kts 237°
2026-05-06 18:24 39.57064 -104.84946 5830 ft 11 kts 176°
2026-05-06 18:24 39.56971 -104.84942 5830 ft 14 kts 180°
2026-05-06 18:24 39.56858 -104.84930 5830 ft 17 kts 174°
2026-05-06 18:25 39.56725 -104.84927 5830 ft 19 kts 178°
2026-05-06 18:25 39.56583 -104.84922 5830 ft 20 kts 178°
2026-05-06 18:25 39.56440 -104.84916 5830 ft 21 kts 178°
2026-05-06 18:25 39.56293 -104.84908 5830 ft 22 kts 178°
2026-05-06 18:26 39.56136 -104.84902 5830 ft 21 kts 176°
2026-05-06 18:26 39.55982 -104.84895 5830 ft 23 kts 178°
2026-05-06 18:26 39.55844 -104.84888 5830 ft 16 kts 178°
2026-05-06 18:26 39.55735 -104.84882 5830 ft 9 kts 177°
2026-05-06 18:27 39.55687 -104.84898 5830 ft 6 kts 239°
2026-05-06 18:27 39.55682 -104.84969 5830 ft 9 kts 268°
2026-05-06 18:27 39.55691 -104.85020 5830 ft 4 kts 348°
2026-05-06 18:27 39.55758 -104.85023 5830 ft 28 kts
2026-05-06 18:28 39.56211 -104.85049 5830 ft 101 kts 357°
2026-05-06 18:28 39.57119 -104.85086 5831 ft 157 kts 358°
2026-05-06 18:28 39.58313 -104.85200 6110 ft 179 kts 353°
2026-05-06 18:28 39.59564 -104.85362 6662 ft 174 kts 357°
2026-05-06 18:29 39.60922 -104.85452 6979 ft 201 kts 358°
2026-05-06 18:29 39.62498 -104.85543 7785 ft 213 kts 358°
2026-05-06 18:29 39.64138 -104.85633 7984 ft 239 kts 358°
2026-05-06 18:29 39.65892 -104.85729 7978 ft 247 kts 358°
2026-05-06 18:30 39.67799 -104.85834 8493 ft 269 kts 359°
2026-05-06 18:30 39.69720 -104.85941 9453 ft 275 kts 358°
2026-05-06 18:30 39.71865 -104.86055 10397 ft 283 kts 358°
2026-05-06 18:30 39.73972 -104.86134 11367 ft 288 kts 358°
2026-05-06 18:31 39.75962 -104.86163 12285 ft 290 kts 360°
2026-05-06 18:31 39.77972 -104.85667 13098 ft 298 kts 19°
2026-05-06 18:31 39.79915 -104.84666 13876 ft 303 kts 19°
2026-05-06 18:31 39.81896 -104.83639 14689 ft 307 kts 18°
2026-05-06 18:32 39.83940 -104.82596 15495 ft 311 kts 17°
2026-05-06 18:32 39.85964 -104.81578 16225 ft 315 kts 17°